FW3322 Weather Reports


Display with metric or nautical units.
time (UTC)temp
F
wind
direction
speed
MPH
gust
MPH
rain 1hr
in
rain 24hr
in
rain mn
in
humidity
%
barometer
mb
20260508210039 75 227 5.0 11.0 0.00 0.00 0.00 58 1008.8
20260508204536 76 223 5.0 13.0 0.00 0.00 0.00 59 1009.0
20260508203041 78 217 5.0 13.0 0.00 0.00 0.00 55 1008.9
20260508201534 77 152 7.0 13.0 0.00 0.00 0.00 57 1008.6
20260508200032 77 138 5.0 11.0 0.00 0.00 0.00 59 1009.1
20260508194535 78 210 4.0 19.0 0.00 0.00 0.00 59 1009.3
20260508193025 77 144 5.0 13.0 0.00 0.00 0.00 58 1009.6
20260508191532 76 219 4.0 18.0 0.00 0.00 0.00 59 1009.8
20260508190023 76 148 6.0 12.0 0.00 0.00 0.00 59 1009.7
20260508184522 76 203 7.0 16.0 0.00 0.00 0.00 60 1010.0
20260508183025 76 234 5.0 12.0 0.00 0.00 0.00 61 1010.2
20260508181516 75 188 4.0 12.0 0.00 0.00 0.00 60 1010.4
20260508180014 74 198 6.0 14.0 0.00 0.00 0.00 62 1010.7
20260508174508 74 234 3.0 13.0 0.00 0.00 0.00 62 1011.0
20260508173005 74 217 4.0 13.0 0.00 0.00 0.00 63 1011.3
20260508171508 73 219 8.0 14.0 0.00 0.00 0.00 63 1011.3
20260508170002 73 163 6.0 11.0 0.00 0.00 0.00 64 1011.5
20260508164558 71 245 5.0 14.0 0.00 0.00 0.00 65 1011.9
20260508163055 71 227 6.0 18.0 0.00 0.00 0.00 65 1011.9
20260508161558 70 211 6.0 14.0 0.00 0.00 0.00 67 1012.1
20260508160049 69 138 4.0 18.0 0.00 0.00 0.00 69 1012.3
20260508154606 69 165 3.0 15.0 0.00 0.00 0.00 70 1012.5
20260508153046 69 223 5.0 13.0 0.00 0.00 0.00 70 1012.7
20260508151541 67 178 6.0 14.0 0.00 0.00 0.00 71 1012.8
20260508150053 67 130 5.0 10.0 0.00 0.00 0.00 72 1012.9
20260508144536 66 250 1.0 10.0 0.00 0.00 0.00 74 1013.3
20260508143043 64 171 2.0 8.0 0.00 0.00 0.00 76 1013.5
20260508141530 63 284 3.0 11.0 0.00 0.00 0.00 75 1013.7
20260508140028 62 196 2.0 7.0 0.00 0.00 0.00 76 1013.7
20260508134524 60 147 1.0 9.0 0.00 0.00 0.00 78 1014.0
20260508133020 59 218 5.0 10.0 0.00 0.00 0.00 78 1013.9
20260508131519 59 220 3.0 11.0 0.00 0.00 0.00 78 1013.9
20260508130014 58 244 3.0 8.0 0.00 0.00 0.00 79 1014.0
20260508124511 57 150 2.0 7.0 0.00 0.00 0.00 80 1014.0
20260508123008 0 0.0 0.0 0.00 0.00 0.00 1014.0
20260508121503 0 0.0 0.0 0.00 0.00 0.00 1013.9
20260508114554 0 0.0 0.0 0.00 0.00 0.00 1013.4
20260508113052 0 0.0 0.0 0.00 0.00 0.00 1013.2
20260508111559 51 146 0.0 4.0 0.00 0.00 0.00 84 1013.0
20260508110048 52 148 0.0 4.0 0.00 0.00 0.00 84 1012.9
20260508104547 52 160 1.0 5.0 0.00 0.00 0.00 84 1012.7
20260508103050 52 139 0.0 2.0 0.00 0.00 0.00 84 1012.8
20260508101548 51 142 0.0 5.0 0.00 0.00 0.00 84 1012.8
20260508100044 51 142 0.0 3.0 0.00 0.00 0.00 85 1012.6
20260508094545 51 157 0.0 2.0 0.00 0.00 0.00 84 1012.8
20260508093042 51 117 0.0 2.0 0.00 0.00 0.00 84 1012.8
20260508091549 52 140 0.0 2.0 0.00 0.00 0.00 84 1012.8
20260508090040 52 128 0.0 5.0 0.00 0.00 0.00 82 1012.7
20260508084536 52 143 0.0 2.0 0.00 0.00 0.00 82 1012.8
20260508083038 53 135 0.0 5.0 0.00 0.00 0.00 81 1013.1
20260508081532 53 136 0.0 4.0 0.00 0.00 0.00 81 1013.2
20260508080050 54 200 0.0 4.0 0.00 0.00 0.00 80 1013.3
20260508074527 54 146 0.0 2.0 0.00 0.00 0.00 79 1013.5
20260508073024 54 144 0.0 6.0 0.00 0.00 0.00 78 1013.5
20260508071525 54 145 3.0 9.0 0.00 0.00 0.00 79 1013.6
20260508070024 55 145 1.0 5.0 0.00 0.00 0.00 78 1013.6
20260508064537 55 151 3.0 7.0 0.00 0.00 0.00 78 1013.7
20260508063018 55 159 2.0 6.0 0.00 0.00 0.00 77 1013.8
20260508061519 56 161 1.0 6.0 0.00 0.00 0.00 77 1014.0
20260508060017 56 146 3.0 6.0 0.00 0.00 0.00 76 1014.1
20260508054524 55 132 3.0 6.0 0.00 0.00 0.00 77 1014.2
20260508053011 55 146 1.0 5.0 0.00 0.00 0.00 78 1014.2
20260508051508 54 153 1.0 4.0 0.00 0.00 0.00 79 1014.2
20260508050009 55 139 1.0 4.0 0.00 0.00 0.00 78 1014.4
20260508044505 55 162 1.0 5.0 0.00 0.00 0.00 78 1014.4
20260508043005 55 136 0.0 4.0 0.00 0.00 0.00 79 1014.5
20260508041504 55 142 0.0 2.0 0.00 0.00 0.00 79 1014.6
20260508040012 55 178 1.0 4.0 0.00 0.00 0.00 77 1014.8
20260508034503 56 156 1.0 4.0 0.00 0.00 0.00 76 1014.9
20260508033004 56 150 1.0 3.0 0.00 0.00 0.00 76 1015.0
20260508031508 56 171 1.0 4.0 0.00 0.00 0.00 76 1015.1
20260508030000 56 148 1.0 3.0 0.00 0.00 0.00 76 1015.1
20260508024602 56 148 0.0 2.0 0.00 0.00 0.00 76 1015.0
20260508023101 56 128 0.0 1.0 0.00 0.00 0.00 76 1014.8
20260508021600 57 139 0.0 1.0 0.00 0.00 0.00 74 1014.7
20260508020100 57 140 1.0 2.0 0.00 0.00 0.00 73 1014.6
20260508014558 59 131 1.0 2.0 0.00 0.00 0.00 71 1014.5
20260508013058 61 155 0.0 1.0 0.00 0.00 0.00 67 1014.4
20260508011558 62 140 0.0 1.0 0.00 0.00 0.00 65 1014.2
20260508010057 64 148 1.0 5.0 0.00 0.00 0.00 62 1014.2
20260508004601 66 173 1.0 6.0 0.00 0.00 0.00 59 1014.1
20260508003056 68 138 1.0 6.0 0.00 0.00 0.00 58 1014.1
20260508001556 69 132 1.0 7.0 0.00 0.00 0.00 55 1014.1
20260508000059 69 246 0.0 7.0 0.00 0.00 0.00 55 1014.0
20260507234559 69 215 3.0 9.0 0.00 0.00 0.00 52 1014.0
20260507233113 69 184 4.0 12.0 0.00 0.00 0.00 53 1014.1
20260507231552 70 157 4.0 10.0 0.00 0.00 0.00 53 1014.2
20260507230052 70 183 4.0 9.0 0.00 0.00 0.00 52 1014.4
20260507224550 69 223 4.0 10.0 0.00 0.00 0.00 52 1014.4
20260507223057 69 226 4.0 12.0 0.00 0.00 0.00 52 1014.7
20260507221547 69 196 4.0 11.0 0.00 0.00 0.00 52 1014.8
20260507220043 70 249 3.0 8.0 0.00 0.00 0.00 54 1015.1
20260507214542 69 198 3.0 13.0 0.00 0.00 0.00 52 1015.1
20260507213042 68 213 4.0 10.0 0.00 0.00 0.00 53 1015.1
20260507211547 69 213 3.0 13.0 0.00 0.00 0.00 54 1015.4